Location: Earls Croome
(52.0667°N, 2.2000°W)
Time: 22:37:13
(UTC+00:00)

Cosmos 1766 Rocket - Pass Details

Date: 17 November 2019
Orbit: 606 x 632 km, 82.5° (Epoch: 10 December)

Event Time Altitude Azimuth Distance (km) Brightness Sun altitude
Rises 05:03:36 0° 178° (S) 2,853 7.0 -22.4°
Reaches altitude 10° 05:05:49 10° 174° (S) 1,955 6.2 -22.1°
Maximum altitude 05:10:04 58° 96° (E) 718 4.1 -21.4°
Drops below altitude 10° 05:14:21 10° 18° (NNE) 1,980 6.3 -20.8°
Sets 05:16:37 0° 14° (NNE) 2,893 7.1 -20.4°
